This is the latest recevied weather packets stored in our database for station/object KM4CNW. If no packets are shown the sender has not sent any weather packets the latest 10 day(s).
| Time | Temp. | Humidity | Pressure | Rain* | Wind** | Luminosity | Snow |
|---|---|---|---|---|---|---|---|
| 1777739745 | 13.33° C | 49% | 1008 hPa | 0 mm | - | 172 W/m² | - |
| 1777739442 | 13.89° C | 47% | 1008.1 hPa | 0 mm | - | 164 W/m² | - |
| 1777739139 | 13.89° C | 46% | 1008.1 hPa | 0 mm | - | 181 W/m² | - |
| 1777738836 | 13.89° C | 50% | 1008.2 hPa | 0 mm | - | 188 W/m² | - |
| 1777738532 | 13.33° C | 52% | 1008.2 hPa | 0 mm | - | 211 W/m² | - |
| 1777738230 | 13.33° C | 53% | 1008.2 hPa | 0 mm | - | 222 W/m² | - |
| 1777737928 | 13.33° C | 52% | 1008.2 hPa | 0 mm | - | 202 W/m² | - |
| 1777737626 | 13.33° C | 55% | 1008.5 hPa | 0 mm | - | 174 W/m² | - |
| 1777737324 | 12.78° C | 58% | 1008.4 hPa | 0 mm | - | 156 W/m² | - |
| 1777737021 | 12.78° C | 57% | 1008.6 hPa | 0 mm | - | 147 W/m² | - |
| 1777736072 | 12.78° C | 62% | 1008.8 hPa | 0 mm | - | 110 W/m² | - |
| 1777735769 | 12.78° C | 67% | 1009 hPa | 0 mm | - | 119 W/m² | - |
| 1777735466 | 12.78° C | 66% | 1009.1 hPa | 0 mm | - | 75 W/m² | - |
| 1777735164 | 12.78° C | 64% | 1009.2 hPa | 0 mm | - | 57 W/m² | - |
| 1777734860 | 12.78° C | 61% | 1008.8 hPa | 0 mm | - | 60 W/m² | - |
| 1777734558 | 12.78° C | 61% | 1008.7 hPa | 0 mm | - | 60 W/m² | - |
| 1777734254 | 12.78° C | 64% | 1008.8 hPa | 0 mm | - | 65 W/m² | - |
| 1777733951 | 12.78° C | 61% | 1008.6 hPa | 0 mm | - | 55 W/m² | - |
| 1777733647 | 12.78° C | 64% | 1008.2 hPa | 0 mm | - | 71 W/m² | - |
| 1777733343 | 13.33° C | 64% | 1008.4 hPa | 0 mm | - | 70 W/m² | - |
| 1777733041 | 13.33° C | 66% | 1008 hPa | 0 mm | - | 92 W/m² | - |
| 1777732737 | 13.33° C | 66% | 1008.1 hPa | 0 mm | - | 91 W/m² | - |
| 1777732434 | 12.78° C | 68% | 1008 hPa | 0 mm | - | 109 W/m² | - |
| 1777732132 | 12.78° C | 65% | 1008.1 hPa | 0 mm | - | 141 W/m² | - |
| 1777731828 | 12.78° C | 67% | 1007.9 hPa | 0 mm | - | 123 W/m² | - |
* Rain latest hour (hover to see other rain measurements)
** Current wind speed in m/s (hover to see current wind gust speed)